Location: Civís
(42.4648°N, 1.4232°E)
Time: 18:38:47
(UTC+00:00)

Cosmos 1441 Rocket - Pass Details

Date: 18 November 2025
Orbit: 425 x 449 km, 81.1° (Epoch: 04 December)

Event Time Altitude Azimuth Distance (km) Brightness Sun altitude
Rises 04:44:23 0° 145° (SE) 2,388 7.2 -22.9°
Reaches altitude 10° 04:47:23 10° 115° (ESE) 1,524 6.6 -22.3°
Maximum altitude 04:48:49 12° 89° (E) 1,385 6.4 -22.1°
Drops below altitude 10° 04:50:16 10° 63° (ENE) 1,526 6.3 -21.8°
Sets 04:53:16 0° 32° (NNE) 2,396 6.9 -21.2°
